Wind_Speed
22 18 17 17 16 14 13 12 13 14 13 14 14 12 12 11 9 10 10 9 8 7
22 21 17 17 16 17 15 14 14 14 13 14 14 14 13 11 12 12 11 10 11 10
24 22 20 20 19 17 16 16 17 14 13 14 15 15 15 14 13 14 12 11 12 13
24 24 21 21 23 22 19 18 19 19 18 17 17 16 17 16 15 15 14 14 14 14
21 23 24 25 22 21 24 21 21 21 21 20 21 18 18 17 15 16 15 15 15 15
21 21 23 24 24 23 25 25 22 21 23 24 22 20 18 18 18 17 16 15 15 15
22 20 18 19 21 22 22 24 24 25 25 23 22 21 18 17 17 17 16 16 16 15
26 19 20 22 22 22 23 23 23 25 25 26 25 23 21 21 19 17 17 16 15 14
21 24 23 23 22 22 24 25 29 26 26 27 27 27 27 25 18 17 17 15 15 13
14 18 21 22 22 25 26 25 28 26 26 28 26 28 31 26 21 20 18 15 13 13
15 20 22 24 27 27 29 30 33 32 27 26 27 29 29 27 24 21 18 16 15 13
19 23 25 28 27 28 30 34 35 33 31 29 27 30 30 25 27 24 22 21 19 19
23 27 31 32 32 32 29 36 36 36 37 34 31 32 31 25 26 30 26 24 21 19
25 26 28 32 34 33 31 33 35 37 36 35 34 33 29 28 32 33 29 27 23 17
Wind_Direction
230 227 234 238 225 241 231 236 232 239 236 234 231 234 241 244 244 244 245 251 253 259
235 231 227 228 235 235 239 235 239 237 238 230 235 235 240 249 249 238 254 253 264 266
233 235 235 233 234 235 236 244 235 239 234 231 233 240 246 244 256 246 242 254 256 258
225 227 234 241 245 245 245 240 248 247 242 236 238 242 249 246 234 251 247 248 248 258
232 230 229 234 243 250 250 243 243 249 247 248 247 244 241 244 239 252 258 257 256 259
235 230 231 235 236 241 247 248 242 243 242 246 245 243 249 247 247 249 254 254 265 273
238 228 234 242 239 235 242 245 243 241 243 243 241 241 240 241 250 250 252 256 264 265
242 242 246 244 251 245 239 242 245 244 242 242 239 243 244 243 244 250 252 261 263 268
249 250 245 248 243 241 241 242 246 256 241 241 242 241 241 242 241 243 247 258 260 250
252 253 251 251 249 245 246 247 240 243 244 240 241 240 243 243 238 241 247 247 244 239
270 264 260 256 256 256 251 247 249 249 237 237 242 243 242 240 237 240 238 235 240 231
283 278 271 265 261 252 250 252 249 241 234 234 238 240 241 236 233 232 235 249 244 239
284 274 270 269 261 254 249 248 244 241 240 242 237 237 236 232 220 230 239 240 237 237
310 293 276 267 263 258 247 245 243 241 243 229 229 235 239 223 221 231 232 232 228 223
Height
1556 1559 1562 1564 1566 1568 1569 1571 1573 1574 1575 1576 1577 1579 1580 1581 1582 1583 1583 1583 1584 1585
1551 1554 1558 1560 1562 1564 1566 1568 1569 1570 1571 1573 1576 1577 1578 1580 1581 1581 1581 1583 1582 1581
1546 1549 1551 1554 1556 1559 1562 1563 1564 1565 1567 1570 1572 1573 1575 1577 1578 1578 1579 1580 1580 1579
1541 1543 1546 1548 1551 1553 1555 1558 1559 1561 1563 1565 1568 1569 1570 1571 1573 1574 1575 1576 1576 1575
1536 1539 1541 1541 1544 1547 1549 1552 1554 1556 1558 1561 1563 1565 1566 1567 1569 1570 1571 1572 1571 1571
1531 1534 1536 1538 1538 1540 1543 1545 1549 1552 1553 1555 1558 1560 1561 1563 1564 1566 1566 1567 1567 1567
1525 1528 1531 1534 1534 1536 1537 1540 1543 1545 1547 1550 1552 1554 1556 1559 1560 1560 1561 1562 1561 1562
1519 1522 1524 1526 1529 1530 1532 1534 1536 1539 1542 1543 1546 1548 1550 1552 1554 1554 1556 1555 1555 1556
1513 1514 1517 1518 1519 1522 1523 1526 1528 1531 1534 1537 1539 1542 1543 1546 1548 1549 1549 1550 1550 1550
1507 1508 1509 1510 1511 1513 1515 1517 1519 1522 1526 1528 1531 1534 1536 1539 1542 1543 1543 1544 1545 1546
1501 1501 1501 1502 1503 1504 1506 1507 1509 1512 1516 1519 1521 1525 1527 1532 1534 1536 1538 1539 1539 1541
1497 1495 1495 1494 1494 1495 1497 1497 1499 1502 1506 1508 1512 1514 1518 1524 1528 1529 1531 1533 1534 1535
1490 1488 1485 1483 1483 1484 1486 1487 1490 1492 1495 1498 1501 1503 1509 1515 1520 1521 1524 1527 1529 1530
1480 1475 1473 1470 1470 1471 1473 1476 1478 1481 1484 1488 1491 1494 1500 1505 1509 1513 1516 1519 1522 1525